Terug naar catalogus

STARLINK-4251

ActiefCommunicatieSSO
NORAD 53083·PAYLOAD·🇺🇸 United States

Gelanceerd Jul 11, 2022 vanaf Vandenberg Space Force Base

Loading…

Volgende Passages (komende 24 uur)

TLE

VersSource: CelesTrak SupGP

Epoch: Sep 14, 2026, 20:49 UTC

1 53083C 22077AS  26257.86784722  .00087795  00000+0  27253-2 0  2576
2 53083  97.2856  73.5965 0001670  86.5362  97.2009 15.33394521    11

Volg STARLINK-4251 in realtime met AllMySat

Download on the App Store